This is the latest recevied weather packets stored in our database for station/object WX1N. If no packets are shown the sender has not sent any weather packets the latest 10 day(s).
| Time | Temp. | Humidity | Pressure | Rain* | Wind** | Luminosity | Snow |
|---|---|---|---|---|---|---|---|
| 1777910403 | 17.22° C | 44% | 1006.3 hPa | 0 mm | - | - | - |
| 1777910103 | 17.22° C | 44% | 1006.2 hPa | 0 mm | - | - | - |
| 1777909803 | 17.78° C | 43% | 1006.4 hPa | 0 mm | - | - | - |
| 1777909502 | 17.78° C | 43% | 1006.2 hPa | 0 mm | - | - | - |
| 1777909203 | 18.33° C | 42% | 1006.3 hPa | 0 mm | - | - | - |
| 1777908902 | 17.78° C | 47% | 1006.3 hPa | 0 mm | - | - | - |
| 1777908603 | 17.22° C | 51% | 1006.3 hPa | 0 mm | - | - | - |
| 1777908303 | 16.67° C | 48% | 1006.3 hPa | 0 mm | - | - | - |
| 1777908003 | 16.11° C | 46% | 1006.3 hPa | 0 mm | - | - | - |
| 1777907703 | 16.11° C | 50% | 1006.4 hPa | 0 mm | - | - | - |
| 1777907403 | 15.56° C | 46% | 1006.5 hPa | 0 mm | - | - | - |
| 1777907103 | 15.56° C | 46% | 1006.6 hPa | 0 mm | - | - | - |
| 1777906803 | 15.56° C | 46% | 1006.5 hPa | 0 mm | - | - | - |
| 1777906503 | 15.56° C | 45% | 1006.6 hPa | 0 mm | - | - | - |
| 1777906203 | 15.56° C | 45% | 1006.7 hPa | 0 mm | - | - | - |
| 1777905903 | 15.56° C | 46% | 1006.7 hPa | 0 mm | - | - | - |
| 1777905603 | 16.11° C | 45% | 1006.6 hPa | 0 mm | - | - | - |
| 1777905303 | 15.56° C | 46% | 1006.5 hPa | 0 mm | - | - | - |
| 1777905003 | 15.56° C | 47% | 1006.5 hPa | 0 mm | - | - | - |
| 1777904703 | 15° C | 46% | 1006.6 hPa | 0 mm | - | - | - |
| 1777904403 | 15° C | 48% | 1006.5 hPa | 0 mm | - | - | - |
| 1777904103 | 15° C | 47% | 1006.6 hPa | 0 mm | - | - | - |
| 1777903803 | 15° C | 50% | 1006.6 hPa | 0 mm | - | - | - |
| 1777903503 | 15° C | 51% | 1006.7 hPa | 0 mm | - | - | - |
| 1777903202 | 15° C | 51% | 1006.7 hPa | 0 mm | - | - | - |
* Rain latest hour (hover to see other rain measurements)
** Current wind speed in m/s (hover to see current wind gust speed)